This demonstration page uses our WeatherBlox Daily Observations layout. Learn more.

Left ArrowRight Arrow

39.08367, -84.50855

Hourly Observations for October 22, 2018

Temp ( °F °C ) Dew Point ( °F °C ) Humidity (%) Winds ( mph kmh ) Pressure ( in mb ) Visibility ( mi km ) Precip ( " mm )
12:53 am 00:53 Clear 34 1.1 34 1.1 100 100 N N/A 30.25 1025 10 16 N/A
1:53 am 01:53 Clear 33 0.6 32 undefined 96 96 N N/A 30.26 1025 9 14 N/A
2:53 am 02:53 Clear 34 1.1 33 0.6 97 97 N N/A 30.26 1025 10 16 N/A
3:53 am 03:53 Clear 32 undefined 32 undefined 100 100 N N/A 30.26 1025 10 16 N/A
4:53 am 04:53 Clear 32 undefined 32 undefined 100 100 N N/A 30.25 1024 8 13 N/A
5:53 am 05:53 Clear 32 undefined 32 undefined 100 100 N N/A 30.24 1024 10 16 N/A
6:53 am 06:53 Clear 32 undefined 32 undefined 100 100 N N/A 30.26 1025 9 14 N/A
7:53 am 07:53 Clear 32 undefined 32 undefined 100 100 N N/A 30.25 1025 10 16 N/A
8:53 am 08:53 Sunny 36 2.2 33 0.6 89 89 N N/A 30.25 1025 10 16 N/A
9:53 am 09:53 Sunny 43 6.1 37 2.8 80 80 S 6 9 30.25 1024 10 16 N/A
10:53 am 10:53 Sunny 50 10 38 3.3 63 63 SSW 9 15 30.24 1024 10 16 N/A
11:53 am 11:53 Sunny 54 12.2 36 2.2 51 51 SSW 15 24 30.21 1023 10 16 N/A
12:53 pm 12:53 Sunny 57 13.9 34 1.1 42 42 WSW 13 20 30.19 1023 10 16 N/A
1:53 pm 13:53 Sunny 61 16.1 36 2.2 39 39 SSW 12 19 30.16 1021 10 16 N/A
2:53 pm 14:53 Sunny 63 17.2 36 2.2 37 37 SSW 18 30 30.13 1020 10 16 N/A
3:53 pm 15:53 Sunny 64 17.8 33 0.6 32 32 SW 14 22 30.11 1020 10 16 N/A
4:53 pm 16:53 Sunny 64 17.8 35 1.7 34 34 SSW 16 26 30.11 1020 10 16 N/A
5:53 pm 17:53 Sunny 62 16.7 32 undefined 32 32 SW 14 22 30.09 1019 10 16 N/A
6:53 pm 18:53 Clear 57 13.9 33 0.6 41 41 SSW 10 17 30.10 1019 10 16 N/A
7:53 pm 19:53 Clear 53 11.7 35 1.7 51 51 SW 8 13 30.12 1020 10 16 N/A
8:53 pm 20:53 Clear 47 8.3 38 3.3 71 71 SW 8 13 30.13 1020 10 16 N/A
9:53 pm 21:53 Clear 46 7.8 40 4.4 79 79 N N/A 30.15 1021 10 16 N/A
10:53 pm 22:53 Clear 48 8.9 38 3.3 68 68 N N/A 30.16 1021 10 16 N/A
11:53 pm 23:53 Clear 44 6.7 38 3.3 79 79 N N/A 30.16 1021 10 16 N/A

Powered by AerisWeather